Location: Newark
(37.9000°S, 166.5167°W)
Time: 18:51:41
(UTC+00:00)

N. Korean satellite - Visible Passes

Search period start: 29 January 2020 00:00
Search period end: 08 February 2020 00:00
Orbit: 454 x 507 km, 97.2° (Epoch: 29 January)

Date Brightness Start Highest point End Pass type
(mag) Time Alt. Az. Time Alt. Az. Time Alt. Az.
29 Jan 9.5 15:24:52 10° NE 15:27:52 23° ESE 15:30:53 10° SSE visible
30 Jan 10.2 15:01:12 10° E 15:02:36 12° ESE 15:04:01 10° SE visible
01 Feb 8.5 15:41:10 10° NE 15:44:37 37° ESE 15:48:06 10° S visible
02 Feb 9.8 15:16:40 10° ENE 15:19:18 18° ESE 15:21:56 10° SSE visible
05 Feb 9.0 15:32:46 10° NE 15:36:00 29° ESE 15:39:16 10° SSE visible
06 Feb 10.0 15:08:35 10° ENE 15:10:41 15° ESE 15:12:48 10° SSE visible
